Weather in Kalinovskoye

Russia / Stavropol Krai     44°51′57″N   42°58′12″E
temp.,
°C
wind,
m/s
gust,
m/s
humid.,
%
clouds,
%
prec.,
mm/h
press.,
hPa
HPBL,
m
2 august, mon
mon200:00+23ene22530 0.0 101118
03:00+22se11550 0.0 101111
06:00+23ene11580 0.0 101111
09:00+28ene33440 0.0 1012660
12:00+32ene33315 0.0 10111602
15:00+33ene33295 0.0 10092096
18:00+32ne12355 0.0 1009164
21:00+25se11525 0.6 101016
3 august, tue
tue300:00+24wnw22555 0.0 101012
03:00+23wnw11590 0.1 101011
06:00+22w33700 0.1 101251
09:00+29wnw21460 0.1 1012469
12:00+33n22320 0.0 10112047
15:00+35n22230 0.0 10102971
18:00+34nne22270 0.0 100930
21:00+27wsw01300 0.0 101011
4 august, wed
wed400:00+25w34470 0.0 101139
03:00+23w410590 0.0 1012202
06:00+22w47610 0.0 1012155
09:00+29w56420 0.0 1013441
12:00+33nw44320 0.0 10121479
15:00+35nnw33275 0.0 10112780
18:00+33nnw573177 0.0 1011422
21:00+26n354413 0.0 101380
5 august, thu
thu500:00+24wnw11520 0.0 101311
03:00+22nw33613 0.2 101440
06:00+21wnw2371100 0.4 101559
09:00+28ne45445 0.4 1014795
12:00+33ne553132 0.0 10131928
15:00+34ne54277 0.0 10122594
18:00+32ne46317 0.0 1011429
21:00+27ne393816 0.0 1012145
6 august, fri
fri600:00+25ene313440 0.0 1012332
03:00+24ene615400 0.0 1010417
06:00+23e513430 0.0 1012453
09:00+29e710330 0.0 1011851
12:00+34e8925100 0.0 10101933
15:00+35e892298 0.0 10072674
18:00+34e7102588 0.0 1007879
21:00+28e3733100 0.0 1009140